QPF
0.01 0.01 0.01 0.01 0.00 0.00 0.00 0.00 0.00 0.00 0.00 0.00 0.00 0.00 0.00 0.00 0.00 0.00 0.00 0.00 0.01 0.01 0.02 0.03 0.02 0.03 0.03 0.05 0.06 0.05 0.05 0.04 0.04 0.04 0.04 0.05 0.05 0.05 0.05 0.06 0.05 0.05 0.05
0.02 0.02 0.02 0.02 0.01 0.01 0.01 0.00 0.00 0.00 0.00 0.00 0.00 0.00 0.00 0.00 0.00 0.00 0.00 0.00 0.00 0.01 0.01 0.01 0.02 0.03 0.03 0.03 0.03 0.04 0.04 0.05 0.05 0.04 0.04 0.05 0.05 0.05 0.06 0.06 0.05 0.05 0.05
0.02 0.02 0.02 0.02 0.02 0.01 0.01 0.01 0.00 0.00 0.00 0.00 0.00 0.00 0.00 0.00 0.00 0.00 0.00 0.00 0.01 0.01 0.01 0.01 0.01 0.02 0.03 0.04 0.04 0.05 0.05 0.04 0.04 0.04 0.04 0.04 0.04 0.05 0.06 0.07 0.07 0.06 0.05
0.01 0.01 0.02 0.02 0.02 0.01 0.01 0.01 0.00 0.00 0.00 0.00 0.00 0.00 0.00 0.00 0.00 0.00 0.00 0.01 0.01 0.01 0.01 0.01 0.01 0.01 0.02 0.03 0.04 0.06 0.07 0.07 0.06 0.05 0.05 0.04 0.04 0.04 0.05 0.06 0.08 0.08 0.07
0.00 0.00 0.01 0.01 0.02 0.02 0.02 0.01 0.00 0.00 0.00 0.00 0.00 0.00 0.00 0.00 0.00 0.00 0.00 0.00 0.00 0.00 0.00 0.00 0.00 0.00 0.01 0.02 0.03 0.05 0.07 0.08 0.08 0.08 0.08 0.06 0.05 0.05 0.06 0.06 0.06 0.08 0.09
0.00 0.00 0.00 0.00 0.01 0.02 0.02 0.02 0.01 0.00 0.00 0.00 0.00 0.00 0.00 0.00 0.00 0.00 0.00 0.00 0.00 0.00 0.00 0.00 0.00 0.00 0.00 0.01 0.02 0.05 0.07 0.08 0.08 0.09 0.10 0.10 0.10 0.09 0.07 0.07 0.06 0.07 0.08
0.00 0.00 0.00 0.00 0.00 0.00 0.01 0.02 0.02 0.02 0.01 0.01 0.00 0.00 0.00 0.00 0.00 0.00 0.00 0.00 0.00 0.00 0.00 0.00 0.00 0.00 0.01 0.01 0.01 0.03 0.06 0.07 0.08 0.09 0.11 0.12 0.12 0.11 0.09 0.08 0.08 0.07 0.08
0.00 0.00 0.00 0.00 0.00 0.00 0.00 0.01 0.01 0.02 0.02 0.01 0.01 0.00 0.00 0.00 0.00 0.00 0.00 0.00 0.00 0.00 0.00 0.00 0.00 0.01 0.01 0.01 0.01 0.02 0.02 0.03 0.05 0.06 0.06 0.07 0.08 0.08 0.08 0.08 0.09 0.11 0.10
0.00 0.00 0.00 0.00 0.00 0.00 0.00 0.00 0.00 0.01 0.01 0.01 0.01 0.00 0.00 0.00 0.00 0.00 0.00 0.00 0.00 0.00 0.00 0.00 0.00 0.01 0.01 0.01 0.02 0.02 0.02 0.02 0.04 0.05 0.06 0.07 0.07 0.07 0.08 0.07 0.07 0.10 0.13
0.00 0.00 0.00 0.00 0.00 0.00 0.00 0.00 0.00 0.00 0.01 0.01 0.01 0.00 0.00 0.00 0.00 0.00 0.00 0.00 0.00 0.00 0.00 0.00 0.00 0.01 0.01 0.02 0.03 0.04 0.05 0.03 0.03 0.03 0.04 0.06 0.08 0.09 0.09 0.09 0.08 0.08 0.09
0.00 0.00 0.00 0.00 0.00 0.00 0.00 0.00 0.00 0.00 0.00 0.00 0.00 0.01 0.00 0.00 0.00 0.00 0.00 0.00 0.00 0.00 0.00 0.00 0.01 0.01 0.01 0.02 0.03 0.04 0.06 0.07 0.09 0.08 0.06 0.07 0.07 0.08 0.09 0.10 0.10 0.09 0.08
0.00 0.00 0.00 0.00 0.00 0.00 0.00 0.00 0.00 0.00 0.00 0.00 0.00 0.00 0.00 0.00 0.00 0.01 0.01 0.00 0.00 0.00 0.00 0.00 0.00 0.01 0.00 0.01 0.01 0.03 0.04 0.06 0.09 0.09 0.07 0.05 0.05 0.05 0.06 0.08 0.09 0.09 0.09
0.00 0.00 0.00 0.00 0.00 0.00 0.00 0.00 0.00 0.00 0.00 0.00 0.00 0.00 0.00 0.00 0.00 0.01 0.01 0.01 0.00 0.00 0.00 0.00 0.00 0.00 0.00 0.01 0.01 0.02 0.02 0.03 0.05 0.04 0.03 0.02 0.02 0.03 0.04 0.06 0.08 0.09 0.08
0.00 0.00 0.00 0.00 0.00 0.00 0.00 0.00 0.00 0.00 0.00 0.00 0.00 0.00 0.00 0.00 0.00 0.01 0.01 0.01 0.01 0.01 0.00 0.00 0.00 0.00 0.00 0.01 0.01 0.01 0.02 0.02 0.02 0.02 0.02 0.02 0.02 0.03 0.03 0.05 0.07 0.10 0.09
0.00 0.00 0.00 0.00 0.00 0.00 0.00 0.00 0.00 0.00 0.00 0.00 0.00 0.00 0.00 0.00 0.00 0.00 0.01 0.01 0.02 0.02 0.01 0.00 0.00 0.00 0.01 0.01 0.01 0.02 0.02 0.02 0.02 0.02 0.02 0.03 0.03 0.03 0.03 0.03 0.05 0.08 0.10
0.00 0.00 0.00 0.00 0.00 0.00 0.00 0.00 0.00 0.00 0.00 0.00 0.00 0.00 0.00 0.00 0.00 0.00 0.01 0.01 0.01 0.01 0.01 0.01 0.01 0.01 0.01 0.01 0.01 0.01 0.02 0.03 0.04 0.03 0.03 0.03 0.04 0.04 0.03 0.03 0.04 0.07 0.10
0.00 0.00 0.00 0.00 0.00 0.00 0.00 0.00 0.00 0.00 0.00 0.00 0.00 0.00 0.00 0.00 0.00 0.00 0.00 0.00 0.00 0.01 0.01 0.01 0.01 0.01 0.01 0.01 0.01 0.01 0.02 0.04 0.05 0.03 0.03 0.04 0.04 0.04 0.04 0.04 0.05 0.07 0.10
0.00 0.00 0.00 0.00 0.00 0.00 0.00 0.00 0.00 0.00 0.00 0.00 0.00 0.00 0.00 0.00 0.00 0.00 0.00 0.00 0.01 0.01 0.01 0.01 0.01 0.01 0.01 0.01 0.02 0.02 0.03 0.03 0.03 0.03 0.03 0.05 0.05 0.05 0.04 0.05 0.07 0.08 0.09
0.00 0.00 0.00 0.00 0.00 0.00 0.00 0.00 0.00 0.00 0.00 0.00 0.00 0.00 0.00 0.00 0.00 0.00 0.00 0.00 0.01 0.01 0.01 0.01 0.01 0.01 0.01 0.01 0.02 0.03 0.03 0.02 0.02 0.03 0.04 0.04 0.04 0.04 0.04 0.06 0.07 0.07 0.08
0.00 0.00 0.00 0.00 0.00 0.00 0.00 0.01 0.00 0.00 0.00 0.00 0.00 0.00 0.00 0.01 0.00 0.00 0.01 0.01 0.01 0.01 0.01 0.01 0.02 0.01 0.01 0.01 0.02 0.03 0.02 0.02 0.03 0.03 0.03 0.03 0.03 0.03 0.04 0.06 0.07 0.07 0.08
0.01 0.00 0.00 0.00 0.00 0.00 0.00 0.01 0.00 0.00 0.00 0.00 0.00 0.00 0.00 0.01 0.01 0.01 0.01 0.01 0.01 0.01 0.01 0.01 0.02 0.01 0.01 0.01 0.02 0.03 0.03 0.04 0.04 0.03 0.02 0.02 0.03 0.04 0.05 0.06 0.07 0.07 0.08
0.01 0.01 0.00 0.00 0.00 0.00 0.01 0.01 0.01 0.00 0.00 0.00 0.00 0.00 0.00 0.00 0.01 0.01 0.01 0.01 0.01 0.01 0.01 0.02 0.02 0.02 0.01 0.02 0.03 0.03 0.04 0.05 0.06 0.04 0.04 0.04 0.05 0.05 0.06 0.08 0.08 0.08 0.07
0.01 0.00 0.00 0.00 0.00 0.01 0.01 0.01 0.01 0.00 0.00 0.00 0.00 0.00 0.00 0.00 0.00 0.00 0.01 0.01 0.01 0.01 0.02 0.02 0.03 0.02 0.02 0.03 0.03 0.04 0.05 0.06 0.07 0.06 0.06 0.08 0.07 0.07 0.07 0.07 0.08 0.09 0.10
0.00 0.00 0.00 0.00 0.00 0.00 0.01 0.01 0.00 0.00 0.00 0.00 0.00 0.00 0.00 0.00 0.00 0.01 0.01 0.01 0.01 0.01 0.02 0.02 0.02 0.02 0.02 0.03 0.04 0.05 0.05 0.07 0.07 0.07 0.08 0.09 0.09 0.08 0.08 0.07 0.08 0.10 0.12
0.00 0.00 0.00 0.00 0.00 0.00 0.00 0.00 0.00 0.00 0.00 0.00 0.00 0.00 0.00 0.00 0.01 0.01 0.01 0.01 0.01 0.01 0.02 0.02 0.03 0.03 0.03 0.04 0.04 0.06 0.07 0.07 0.07 0.06 0.07 0.08 0.08 0.08 0.10 0.12 0.11 0.12 0.14
0.00 0.00 0.00 0.00 0.00 0.00 0.00 0.00 0.00 0.00 0.00 0.00 0.00 0.00 0.00 0.01 0.02 0.02 0.01 0.02 0.02 0.01 0.02 0.02 0.02 0.02 0.03 0.03 0.04 0.05 0.07 0.08 0.07 0.07 0.07 0.08 0.08 0.08 0.11 0.12 0.12 0.11 0.12
MSLP
1019.40 1019.04 1018.64 1018.24 1017.83 1017.44 1017.08 1016.73 1016.38 1016.02 1015.63 1015.21 1014.76 1014.30 1013.83 1013.39 1012.97 1012.57 1012.17 1011.75 1011.27 1010.73 1010.13 1009.47 1008.78 1008.11 1007.50 1006.98 1006.56 1006.24 1006.00 1005.83 1005.68 1005.53 1005.35 1005.16 1004.94 1004.70 1004.47 1004.25 1004.06 1003.90 1003.78
1019.27 1018.89 1018.48 1018.07 1017.67 1017.27 1016.89 1016.51 1016.13 1015.72 1015.29 1014.82 1014.34 1013.84 1013.36 1012.91 1012.49 1012.10 1011.71 1011.30 1010.85 1010.33 1009.74 1009.09 1008.41 1007.72 1007.07 1006.48 1005.99 1005.60 1005.29 1005.06 1004.88 1004.72 1004.57 1004.41 1004.24 1004.07 1003.89 1003.71 1003.54 1003.38 1003.24
1019.06 1018.67 1018.26 1017.85 1017.44 1017.04 1016.64 1016.23 1015.81 1015.36 1014.88 1014.37 1013.84 1013.31 1012.81 1012.34 1011.91 1011.51 1011.12 1010.73 1010.31 1009.82 1009.27 1008.65 1007.98 1007.30 1006.63 1006.00 1005.44 1004.97 1004.59 1004.28 1004.04 1003.85 1003.69 1003.56 1003.43 1003.31 1003.18 1003.06 1002.93 1002.80 1002.67
1018.83 1018.43 1018.02 1017.62 1017.21 1016.81 1016.39 1015.96 1015.50 1015.01 1014.47 1013.92 1013.34 1012.78 1012.23 1011.72 1011.26 1010.85 1010.45 1010.07 1009.66 1009.20 1008.69 1008.12 1007.49 1006.83 1006.17 1005.52 1004.92 1004.39 1003.92 1003.54 1003.23 1002.99 1002.80 1002.66 1002.56 1002.48 1002.40 1002.33 1002.25 1002.16 1002.06
1018.62 1018.21 1017.81 1017.41 1017.02 1016.61 1016.19 1015.73 1015.24 1014.71 1014.13 1013.53 1012.91 1012.30 1011.71 1011.16 1010.65 1010.19 1009.77 1009.36 1008.96 1008.52 1008.05 1007.53 1006.95 1006.34 1005.70 1005.06 1004.44 1003.86 1003.33 1002.87 1002.49 1002.19 1001.97 1001.81 1001.71 1001.65 1001.61 1001.59 1001.55 1001.50 1001.43
1018.45 1018.04 1017.65 1017.27 1016.88 1016.48 1016.05 1015.58 1015.06 1014.50 1013.90 1013.26 1012.61 1011.95 1011.32 1010.72 1010.15 1009.64 1009.16 1008.72 1008.29 1007.86 1007.40 1006.92 1006.39 1005.83 1005.23 1004.62 1004.00 1003.39 1002.83 1002.31 1001.88 1001.52 1001.25 1001.06 1000.95 1000.89 1000.87 1000.87 1000.86 1000.84 1000.79
1018.35 1017.94 1017.56 1017.18 1016.80 1016.40 1015.97 1015.49 1014.96 1014.39 1013.78 1013.13 1012.46 1011.79 1011.12 1010.47 1009.86 1009.27 1008.73 1008.23 1007.75 1007.28 1006.82 1006.35 1005.85 1005.33 1004.77 1004.19 1003.59 1002.99 1002.41 1001.87 1001.39 1001.00 1000.69 1000.47 1000.33 1000.25 1000.22 1000.22 1000.22 1000.21 1000.17
1018.31 1017.89 1017.51 1017.14 1016.75 1016.35 1015.91 1015.43 1014.91 1014.35 1013.75 1013.12 1012.47 1011.80 1011.13 1010.46 1009.80 1009.15 1008.54 1007.95 1007.39 1006.87 1006.36 1005.87 1005.37 1004.86 1004.32 1003.77 1003.19 1002.61 1002.04 1001.51 1001.02 1000.60 1000.27 1000.02 999.84 999.74 999.68 999.65 999.63 999.60 999.55
1018.31 1017.89 1017.49 1017.10 1016.71 1016.29 1015.85 1015.37 1014.87 1014.33 1013.78 1013.20 1012.59 1011.97 1011.33 1010.66 1009.97 1009.28 1008.59 1007.92 1007.27 1006.65 1006.06 1005.50 1004.96 1004.43 1003.89 1003.35 1002.80 1002.25 1001.70 1001.19 1000.71 1000.30 999.95 999.68 999.47 999.31 999.20 999.12 999.05 998.98 998.91
1018.35 1017.90 1017.47 1017.05 1016.63 1016.19 1015.74 1015.27 1014.78 1014.29 1013.79 1013.29 1012.77 1012.22 1011.63 1011.00 1010.33 1009.61 1008.86 1008.10 1007.34 1006.61 1005.92 1005.26 1004.64 1004.05 1003.48 1002.93 1002.39 1001.86 1001.35 1000.86 1000.42 1000.02 999.67 999.37 999.12 998.91 998.72 998.56 998.41 998.28 998.16
1018.42 1017.92 1017.45 1016.98 1016.51 1016.03 1015.56 1015.08 1014.62 1014.18 1013.75 1013.34 1012.91 1012.46 1011.96 1011.39 1010.74 1010.02 1009.23 1008.40 1007.55 1006.71 1005.89 1005.12 1004.39 1003.72 1003.09 1002.50 1001.95 1001.43 1000.95 1000.50 1000.09 999.71 999.36 999.04 998.74 998.44 998.17 997.91 997.66 997.45 997.27
1018.50 1017.95 1017.41 1016.88 1016.35 1015.83 1015.32 1014.83 1014.38 1013.98 1013.62 1013.29 1012.96 1012.60 1012.19 1011.70 1011.11 1010.40 1009.60 1008.72 1007.79 1006.85 1005.92 1005.03 1004.19 1003.42 1002.72 1002.08 1001.50 1000.98 1000.51 1000.09 999.70 999.34 998.98 998.63 998.26 997.88 997.49 997.11 996.75 996.43 996.19
1018.58 1017.97 1017.37 1016.77 1016.17 1015.59 1015.04 1014.53 1014.08 1013.70 1013.39 1013.12 1012.87 1012.59 1012.27 1011.85 1011.31 1010.64 1009.84 1008.94 1007.97 1006.95 1005.94 1004.95 1004.01 1003.15 1002.37 1001.67 1001.06 1000.53 1000.07 999.66 999.28 998.91 998.54 998.14 997.69 997.21 996.69 996.17 995.68 995.25 994.92
1018.65 1017.98 1017.32 1016.66 1016.00 1015.37 1014.77 1014.23 1013.76 1013.38 1013.08 1012.84 1012.63 1012.40 1012.13 1011.76 1011.27 1010.64 1009.87 1008.98 1007.99 1006.94 1005.88 1004.83 1003.83 1002.90 1002.06 1001.31 1000.67 1000.12 999.65 999.24 998.86 998.48 998.07 997.60 997.07 996.47 995.81 995.14 994.50 993.94 993.51
1018.69 1017.98 1017.27 1016.56 1015.86 1015.18 1014.54 1013.96 1013.47 1013.06 1012.74 1012.48 1012.27 1012.05 1011.79 1011.45 1010.99 1010.39 1009.65 1008.78 1007.82 1006.78 1005.72 1004.65 1003.63 1002.67 1001.80 1001.03 1000.36 999.80 999.32 998.89 998.50 998.09 997.64 997.10 996.47 995.74 994.95 994.12 993.32 992.62 992.08
1018.68 1017.95 1017.21 1016.48 1015.76 1015.06 1014.39 1013.78 1013.25 1012.79 1012.42 1012.11 1011.85 1011.59 1011.30 1010.94 1010.48 1009.90 1009.19 1008.38 1007.46 1006.48 1005.46 1004.43 1003.43 1002.49 1001.62 1000.85 1000.18 999.61 999.12 998.68 998.27 997.83 997.32 996.72 995.99 995.15 994.21 993.23 992.28 991.43 990.76
1018.61 1017.88 1017.15 1016.43 1015.72 1015.02 1014.34 1013.71 1013.14 1012.62 1012.18 1011.79 1011.43 1011.09 1010.73 1010.32 1009.84 1009.26 1008.59 1007.82 1006.98 1006.07 1005.13 1004.19 1003.25 1002.36 1001.54 1000.80 1000.15 999.58 999.09 998.65 998.22 997.75 997.20 996.54 995.73 994.79 993.73 992.62 991.53 990.53 989.72
1018.49 1017.79 1017.09 1016.41 1015.73 1015.06 1014.40 1013.76 1013.15 1012.58 1012.04 1011.55 1011.09 1010.64 1010.19 1009.71 1009.18 1008.59 1007.94 1007.23 1006.47 1005.66 1004.82 1003.98 1003.14 1002.33 1001.58 1000.89 1000.27 999.73 999.25 998.81 998.37 997.89 997.32 996.62 995.76 994.75 993.61 992.39 991.17 990.04 989.08
1018.35 1017.69 1017.05 1016.43 1015.81 1015.18 1014.55 1013.91 1013.27 1012.65 1012.04 1011.45 1010.87 1010.31 1009.76 1009.19 1008.61 1008.01 1007.38 1006.72 1006.03 1005.32 1004.60 1003.86 1003.13 1002.42 1001.74 1001.11 1000.54 1000.03 999.58 999.15 998.73 998.25 997.68 996.97 996.10 995.06 993.88 992.59 991.29 990.05 988.95
1018.22 1017.62 1017.05 1016.50 1015.94 1015.37 1014.77 1014.14 1013.49 1012.83 1012.15 1011.47 1010.81 1010.15 1009.50 1008.87 1008.24 1007.62 1007.00 1006.39 1005.77 1005.15 1004.52 1003.89 1003.26 1002.63 1002.03 1001.47 1000.95 1000.48 1000.05 999.65 999.25 998.80 998.25 997.57 996.73 995.71 994.53 993.23 991.88 990.56 989.35
1018.16 1017.62 1017.11 1016.63 1016.13 1015.60 1015.04 1014.43 1013.77 1013.08 1012.36 1011.62 1010.88 1010.16 1009.45 1008.76 1008.11 1007.48 1006.88 1006.30 1005.74 1005.19 1004.64 1004.09 1003.54 1002.99 1002.46 1001.94 1001.47 1001.03 1000.64 1000.27 999.90 999.49 998.99 998.37 997.59 996.63 995.50 994.23 992.89 991.54 990.27
1018.21 1017.72 1017.26 1016.82 1016.37 1015.87 1015.33 1014.73 1014.07 1013.37 1012.62 1011.86 1011.09 1010.33 1009.59 1008.89 1008.23 1007.60 1007.02 1006.48 1005.96 1005.47 1004.97 1004.48 1003.99 1003.49 1003.00 1002.52 1002.07 1001.67 1001.29 1000.95 1000.62 1000.26 999.82 999.27 998.58 997.71 996.67 995.49 994.21 992.88 991.59
1018.37 1017.92 1017.50 1017.08 1016.64 1016.16 1015.63 1015.03 1014.37 1013.66 1012.92 1012.15 1011.39 1010.63 1009.91 1009.21 1008.57 1007.97 1007.41 1006.90 1006.41 1005.95 1005.49 1005.03 1004.57 1004.10 1003.63 1003.17 1002.74 1002.35 1001.99 1001.67 1001.36 1001.05 1000.67 1000.20 999.61 998.85 997.94 996.87 995.69 994.44 993.20
1018.63 1018.21 1017.80 1017.39 1016.95 1016.45 1015.91 1015.30 1014.64 1013.94 1013.21 1012.47 1011.74 1011.02 1010.33 1009.68 1009.07 1008.51 1007.98 1007.49 1007.03 1006.59 1006.15 1005.70 1005.25 1004.79 1004.33 1003.87 1003.44 1003.05 1002.69 1002.38 1002.09 1001.80 1001.48 1001.08 1000.57 999.94 999.15 998.22 997.18 996.06 994.91
1018.96 1018.55 1018.14 1017.72 1017.25 1016.73 1016.16 1015.54 1014.88 1014.19 1013.49 1012.80 1012.11 1011.46 1010.83 1010.23 1009.67 1009.15 1008.66 1008.19 1007.75 1007.31 1006.87 1006.43 1005.98 1005.52 1005.05 1004.60 1004.16 1003.75 1003.39 1003.06 1002.77 1002.49 1002.19 1001.84 1001.41 1000.87 1000.21 999.43 998.53 997.57 996.57
1019.31 1018.91 1018.49 1018.04 1017.54 1016.99 1016.39 1015.76 1015.10 1014.43 1013.77 1013.12 1012.50 1011.90 1011.34 1010.80 1010.30 1009.81 1009.35 1008.91 1008.47 1008.04 1007.61 1007.17 1006.72 1006.25 1005.79 1005.32 1004.87 1004.45 1004.06 1003.71 1003.40 1003.10 1002.80 1002.48 1002.09 1001.63 1001.07 1000.42 999.67 998.87 998.04
Thickness
5661 5661 5661 5661 5661 5661 5661 5661 5661 5661 5661 5660 5660 5660 5659 5659 5658 5658 5657 5657 5656 5656 5655 5655 5655 5655 5655 5654 5654 5654 5654 5654 5654 5655 5656 5656 5657 5658 5659 5660 5660 5661 5661
5655 5654 5654 5653 5654 5654 5654 5653 5653 5653 5653 5652 5652 5652 5652 5651 5651 5650 5649 5649 5648 5647 5646 5646 5646 5646 5645 5645 5645 5645 5645 5645 5645 5646 5647 5648 5649 5650 5651 5651 5652 5653 5654
5649 5648 5647 5646 5646 5647 5646 5646 5646 5645 5645 5645 5644 5644 5644 5643 5643 5642 5641 5640 5639 5637 5636 5636 5635 5635 5635 5635 5634 5634 5634 5635 5635 5636 5637 5638 5639 5641 5642 5643 5644 5645 5646
5642 5641 5640 5639 5639 5639 5638 5638 5637 5636 5636 5635 5635 5636 5636 5635 5634 5633 5632 5630 5629 5627 5626 5625 5624 5624 5623 5623 5623 5624 5624 5624 5624 5625 5626 5628 5629 5631 5632 5634 5635 5636 5637
5634 5634 5633 5632 5632 5631 5630 5629 5628 5627 5626 5626 5627 5628 5627 5626 5625 5624 5622 5620 5618 5617 5615 5613 5612 5611 5611 5611 5611 5612 5612 5613 5613 5614 5615 5617 5618 5620 5621 5623 5625 5626 5627
5627 5626 5625 5624 5624 5622 5621 5620 5619 5618 5617 5616 5618 5618 5618 5617 5617 5614 5612 5611 5609 5606 5604 5602 5600 5599 5598 5598 5598 5599 5600 5600 5601 5602 5603 5605 5606 5607 5609 5611 5613 5615 5617
5619 5619 5617 5616 5615 5614 5612 5611 5610 5608 5607 5606 5606 5607 5609 5609 5608 5605 5603 5600 5598 5596 5593 5590 5588 5587 5586 5585 5585 5585 5587 5588 5589 5589 5590 5591 5592 5594 5596 5598 5600 5603 5605
5612 5611 5610 5608 5607 5605 5603 5601 5600 5597 5596 5594 5591 5591 5593 5597 5597 5597 5593 5590 5587 5584 5581 5578 5576 5574 5573 5572 5572 5572 5573 5575 5576 5576 5577 5578 5579 5581 5582 5585 5587 5589 5592
5604 5603 5601 5600 5599 5597 5594 5592 5590 5588 5585 5583 5580 5576 5574 5577 5580 5585 5582 5580 5576 5572 5569 5567 5564 5562 5561 5560 5559 5559 5560 5561 5561 5562 5563 5565 5566 5568 5569 5571 5573 5575 5577
5596 5595 5593 5592 5590 5588 5586 5584 5582 5579 5576 5573 5570 5566 5563 5561 5560 5567 5571 5568 5565 5561 5558 5555 5553 5551 5549 5548 5547 5546 5546 5547 5548 5549 5550 5552 5553 5555 5556 5558 5559 5561 5563
5588 5587 5585 5584 5582 5580 5577 5575 5572 5569 5566 5563 5559 5556 5553 5550 5546 5545 5553 5557 5555 5552 5548 5544 5542 5540 5537 5536 5534 5534 5533 5534 5534 5535 5537 5538 5540 5541 5542 5544 5545 5547 5550
5579 5578 5577 5575 5573 5571 5568 5566 5563 5560 5557 5553 5550 5546 5543 5540 5537 5533 5535 5540 5542 5544 5540 5536 5532 5529 5526 5523 5522 5521 5521 5521 5521 5522 5523 5524 5525 5526 5527 5529 5531 5533 5536
5570 5570 5568 5566 5564 5562 5559 5557 5554 5550 5547 5544 5540 5537 5534 5530 5527 5523 5521 5523 5527 5531 5530 5527 5522 5518 5514 5511 5510 5509 5509 5508 5508 5509 5510 5510 5511 5512 5513 5514 5516 5519 5522
5563 5561 5559 5557 5554 5552 5550 5547 5544 5541 5538 5534 5531 5527 5524 5521 5517 5513 5509 5507 5511 5518 5518 5516 5512 5507 5503 5499 5498 5497 5497 5496 5496 5497 5497 5497 5497 5498 5499 5501 5503 5506 5509
5554 5552 5550 5548 5545 5543 5540 5537 5534 5531 5528 5524 5521 5518 5514 5511 5508 5504 5499 5493 5490 5495 5506 5506 5500 5496 5491 5488 5486 5485 5485 5485 5485 5485 5485 5485 5484 5485 5486 5488 5491 5494 5498
5545 5542 5540 5538 5535 5532 5530 5527 5524 5521 5518 5514 5511 5507 5504 5501 5497 5493 5489 5484 5479 5476 5483 5490 5486 5483 5480 5478 5475 5474 5474 5474 5474 5474 5474 5474 5474 5474 5476 5478 5481 5484 5488
5535 5533 5531 5528 5525 5522 5520 5517 5514 5511 5507 5504 5500 5497 5494 5490 5487 5483 5479 5475 5470 5465 5467 5477 5474 5472 5469 5467 5467 5464 5463 5463 5464 5464 5465 5466 5466 5466 5468 5469 5471 5475 5478
5525 5523 5521 5518 5515 5512 5509 5507 5504 5500 5497 5493 5490 5487 5484 5481 5477 5473 5469 5466 5462 5457 5454 5460 5465 5462 5459 5456 5456 5455 5454 5454 5454 5455 5456 5457 5458 5460 5461 5462 5464 5466 5469
5515 5513 5510 5507 5505 5502 5499 5496 5493 5490 5486 5483 5480 5477 5474 5470 5467 5464 5460 5457 5454 5451 5446 5446 5451 5451 5449 5447 5446 5446 5445 5445 5445 5445 5446 5448 5449 5452 5453 5455 5456 5457 5460
5504 5502 5499 5497 5494 5492 5489 5486 5483 5480 5476 5473 5470 5467 5464 5461 5457 5455 5453 5449 5446 5442 5439 5437 5439 5440 5439 5437 5434 5435 5438 5437 5436 5436 5437 5438 5440 5442 5444 5446 5448 5450 5452
5493 5490 5488 5486 5483 5481 5479 5477 5474 5471 5467 5464 5461 5458 5456 5452 5450 5447 5444 5441 5437 5434 5432 5430 5430 5430 5429 5426 5424 5423 5424 5428 5429 5428 5429 5429 5431 5434 5435 5437 5439 5441 5444
5481 5478 5476 5474 5472 5471 5469 5468 5465 5461 5458 5454 5452 5450 5447 5445 5442 5440 5437 5434 5430 5426 5424 5422 5421 5420 5419 5416 5415 5414 5414 5416 5421 5421 5418 5422 5421 5424 5427 5429 5431 5434 5438
5469 5466 5464 5463 5461 5459 5459 5458 5455 5451 5447 5444 5442 5440 5439 5437 5434 5431 5429 5427 5423 5420 5416 5413 5413 5411 5410 5408 5406 5407 5406 5406 5408 5409 5408 5413 5415 5416 5419 5422 5426 5429 5431
5457 5455 5453 5452 5450 5449 5449 5447 5444 5441 5438 5435 5432 5430 5429 5427 5425 5423 5422 5420 5417 5414 5411 5409 5406 5405 5404 5402 5400 5399 5399 5401 5404 5403 5401 5403 5407 5409 5413 5417 5421 5423 5425
5447 5445 5444 5442 5440 5438 5438 5436 5434 5431 5429 5427 5424 5422 5420 5418 5418 5416 5414 5412 5412 5410 5407 5405 5403 5401 5400 5398 5396 5395 5394 5394 5398 5401 5397 5396 5399 5402 5407 5410 5414 5416 5419
5437 5435 5434 5432 5430 5428 5427 5426 5425 5422 5420 5419 5417 5414 5412 5410 5409 5408 5405 5404 5405 5404 5402 5401 5399 5397 5395 5393 5391 5389 5388 5388 5390 5393 5394 5391 5393 5394 5400 5404 5407 5409 5412